N212CR KIAH-KLAX

Flight info

Callsign N212CR
Flight time 3h 7m
Altitude 38000
Route PITZZ5 CRGER EWM/N0464F400 J4 WLVRN ESTWD HLYWD1
Aircraft CL60/M-SBDE1E2E3FGHIJ1J4J5J7M3RWXYZ/LB1V1D1

Departure

Time 2026-04-20 22:26
Airport George Bush Intercontinental Airport (KIAH)

Arrival

Time 2026-04-21 01:33
Airport Los Angeles International Airport (KLAX)
Time Latitude Longitude Altitude Speed Heading
2026-04-20 21:47 29.96693 -95.35119 93 ft 0 kts 242°
2026-04-20 22:20 29.96690 -95.35125 93 ft 0 kts 241°
2026-04-20 22:20 29.96690 -95.35129 93 ft 1 kts 274°
2026-04-20 22:20 29.96727 -95.35159 93 ft 8 kts 329°
2026-04-20 22:21 29.96777 -95.35204 93 ft 8 kts 344°
2026-04-20 22:21 29.96836 -95.35188 94 ft 9 kts 56°
2026-04-20 22:21 29.96884 -95.35129 94 ft 11 kts 352°
2026-04-20 22:21 29.96973 -95.35181 94 ft 17 kts 335°
2026-04-20 22:22 29.97134 -95.35279 95 ft 21 kts 332°
2026-04-20 22:22 29.97224 -95.35333 95 ft 22 kts 332°
2026-04-20 22:22 29.97363 -95.35415 96 ft 21 kts 334°
2026-04-20 22:22 29.97494 -95.35501 96 ft 22 kts 331°
2026-04-20 22:23 29.97615 -95.35573 96 ft 20 kts 332°
2026-04-20 22:23 29.97746 -95.35657 97 ft 22 kts 330°
2026-04-20 22:23 29.97893 -95.35740 97 ft 24 kts 332°
2026-04-20 22:23 29.98039 -95.35829 97 ft 21 kts 333°
2026-04-20 22:24 29.98177 -95.35918 97 ft 23 kts 330°
2026-04-20 22:24 29.98308 -95.36030 98 ft 24 kts 307°
2026-04-20 22:24 29.98429 -95.36131 98 ft 21 kts 334°
2026-04-20 22:24 29.98560 -95.36191 99 ft 12 kts 19°
2026-04-20 22:25 29.98625 -95.36096 99 ft 20 kts 65°
2026-04-20 22:25 29.98571 -95.36010 99 ft 16 kts 152°
2026-04-20 22:25 29.98176 -95.35769 97 ft 114 kts 152°
2026-04-20 22:25 29.97277 -95.35215 333 ft 170 kts 150°
2026-04-20 22:26 29.96069 -95.34512 877 ft 214 kts 156°
2026-04-20 22:26 29.94554 -95.33974 1739 ft 243 kts 165°
2026-04-20 22:26 29.93007 -95.33581 3470 ft 230 kts 162°
2026-04-20 22:27 29.89590 -95.33335 4898 ft 274 kts 198°
2026-04-20 22:27 29.87965 -95.34605 5253 ft 300 kts 229°
2026-04-20 22:27 29.87130 -95.36765 6729 ft 300 kts 262°
2026-04-20 22:27 29.87279 -95.39045 8343 ft 290 kts 286°
2026-04-20 22:28 29.87875 -95.41181 9752 ft 286 kts 282°
2026-04-20 22:28 29.87961 -95.43426 11078 ft 282 kts 260°
2026-04-20 22:28 29.87303 -95.45525 12327 ft 282 kts 243°
2026-04-20 22:28 29.86333 -95.47463 13442 ft 285 kts 242°
2026-04-20 22:29 29.85344 -95.49425 14511 ft 288 kts 243°
2026-04-20 22:29 29.84362 -95.51435 15435 ft 294 kts 243°
2026-04-20 22:29 29.83411 -95.53520 16335 ft 298 kts 251°
2026-04-20 22:29 29.83000 -95.55844 17214 ft 299 kts 271°
2026-04-20 22:30 29.83392 -95.58167 18054 ft 303 kts 292°
2026-04-20 22:30 29.84400 -95.60334 18916 ft 308 kts 298°
2026-04-20 22:30 29.85457 -95.62453 19726 ft 311 kts 298°
2026-04-20 22:30 29.86537 -95.64636 20536 ft 314 kts 298°
2026-04-20 22:31 29.87630 -95.66845 21313 ft 318 kts 297°
2026-04-20 22:31 29.88718 -95.69046 22069 ft 321 kts 297°
2026-04-20 22:31 29.89824 -95.71284 22807 ft 324 kts 297°
2026-04-20 22:31 29.90942 -95.73549 23518 ft 328 kts 297°
2026-04-20 22:32 29.92074 -95.75841 24245 ft 331 kts 297°
2026-04-20 22:32 29.93214 -95.78153 24970 ft 334 kts 297°
2026-04-20 22:32 29.94374 -95.80505 25677 ft 337 kts 296°
2026-04-20 22:32 29.95532 -95.82857 26375 ft 340 kts 296°
2026-04-20 22:33 29.96704 -95.85237 27009 ft 343 kts 296°
2026-04-20 22:33 29.97889 -95.87648 27618 ft 346 kts 296°
2026-04-20 22:33 29.99086 -95.90083 28216 ft 349 kts 296°
2026-04-20 22:33 30.00289 -95.92530 28854 ft 350 kts 296°
2026-04-20 22:34 30.01505 -95.95003 29394 ft 354 kts 296°
2026-04-20 22:34 30.02741 -95.97523 29881 ft 358 kts 296°
2026-04-20 22:34 30.03980 -96.00052 30326 ft 363 kts 296°
2026-04-20 22:34 30.05229 -96.02601 30778 ft 367 kts 296°
2026-04-20 22:35 30.06483 -96.05179 31246 ft 369 kts 294°
2026-04-20 22:35 30.07338 -96.07966 31652 ft 367 kts 279°
2026-04-20 22:35 30.07784 -96.10850 32075 ft 369 kts 278°
2026-04-20 22:35 30.08237 -96.13799 32484 ft 372 kts 278°
2026-04-20 22:36 30.08695 -96.16753 32916 ft 373 kts 278°
2026-04-20 22:36 30.09154 -96.19725 33270 ft 376 kts 278°
2026-04-20 22:36 30.09613 -96.22704 33602 ft 379 kts 278°
2026-04-20 22:36 30.10077 -96.25717 33931 ft 381 kts 277°
2026-04-20 22:37 30.10543 -96.28748 34335 ft 380 kts 278°
2026-04-20 22:37 30.11001 -96.31727 34761 ft 378 kts 277°
2026-04-20 22:37 30.11459 -96.34708 35191 ft 375 kts 278°
2026-04-20 22:37 30.11911 -96.37658 35613 ft 372 kts 277°
2026-04-20 22:38 30.12354 -96.40551 35989 ft 370 kts 277°
2026-04-20 22:38 30.12800 -96.43469 36350 ft 367 kts 277°
2026-04-20 22:38 30.13242 -96.46367 36652 ft 366 kts 277°
2026-04-20 22:38 30.13681 -96.49251 36958 ft 365 kts 277°
2026-04-20 22:39 30.14123 -96.52158 37225 ft 365 kts 277°
2026-04-20 22:39 30.14559 -96.55032 37473 ft 364 kts 277°
2026-04-20 22:39 30.14993 -96.57891 37726 ft 363 kts 277°
2026-04-20 22:39 30.15428 -96.60764 37968 ft 362 kts 277°
2026-04-20 22:40 30.15862 -96.63633 38198 ft 362 kts 277°
2026-04-20 22:40 30.16296 -96.66518 38249 ft 366 kts 277°
2026-04-20 22:40 30.17182 -96.72413 38247 ft 378 kts 277°
2026-04-20 22:41 30.18091 -96.78483 38255 ft 388 kts 277°
2026-04-20 22:41 30.19023 -96.84716 38254 ft 398 kts 277°
2026-04-20 22:42 30.19972 -96.91084 38260 ft 406 kts 277°
2026-04-20 22:42 30.20934 -96.97559 38265 ft 411 kts 277°
2026-04-20 22:43 30.21895 -97.04047 38260 ft 412 kts 277°
2026-04-20 22:43 30.22869 -97.10602 38255 ft 412 kts 277°
2026-04-20 22:44 30.23843 -97.17123 38248 ft 412 kts 277°
2026-04-20 22:44 30.24816 -97.23664 38250 ft 412 kts 277°
2026-04-20 22:45 30.25782 -97.30179 38244 ft 411 kts 277°
2026-04-20 22:45 30.26745 -97.36699 38238 ft 411 kts 277°
2026-04-20 22:46 30.27712 -97.43269 38258 ft 412 kts 277°
2026-04-20 22:46 30.28668 -97.49792 38260 ft 412 kts 277°
2026-04-20 22:47 30.29630 -97.56376 38262 ft 413 kts 277°
2026-04-20 22:47 30.30589 -97.62962 38259 ft 413 kts 277°
2026-04-20 22:48 30.31536 -97.69496 38255 ft 414 kts 277°
2026-04-20 22:48 30.32681 -97.76051 38254 ft 416 kts 281°
2026-04-20 22:49 30.34076 -97.82579 38256 ft 416 kts 281°
2026-04-20 22:49 30.35450 -97.89047 38262 ft 416 kts 281°
2026-04-20 22:50 30.36833 -97.95581 38260 ft 416 kts 281°
2026-04-20 22:50 30.38211 -98.02113 38258 ft 417 kts 281°
2026-04-20 22:51 30.39579 -98.08622 38250 ft 417 kts 280°
2026-04-20 22:51 30.40948 -98.15156 38246 ft 417 kts 281°
2026-04-20 22:52 30.42312 -98.21684 38252 ft 417 kts 280°
2026-04-20 22:52 30.43673 -98.28216 38243 ft 418 kts 281°
2026-04-20 22:53 30.45041 -98.34779 38246 ft 418 kts 281°
2026-04-20 22:53 30.46484 -98.41260 38243 ft 418 kts 282°
2026-04-20 22:54 30.47946 -98.47819 38247 ft 418 kts 282°
2026-04-20 22:54 30.49394 -98.54334 38231 ft 419 kts 281°
2026-04-20 22:55 30.50842 -98.60869 38237 ft 419 kts 281°
2026-04-20 22:55 30.52286 -98.67406 38220 ft 419 kts 281°
2026-04-20 22:56 30.53736 -98.73984 38218 ft 419 kts 281°
2026-04-20 22:56 30.55170 -98.80511 38219 ft 419 kts 281°
2026-04-20 22:57 30.56605 -98.87057 38216 ft 420 kts 281°
2026-04-20 22:57 30.58055 -98.93690 38212 ft 420 kts 281°
2026-04-20 22:58 30.59493 -99.00283 38212 ft 421 kts 281°
2026-04-20 22:58 30.60926 -99.06870 38213 ft 420 kts 281°
2026-04-20 22:59 30.62347 -99.13425 38201 ft 420 kts 281°
2026-04-20 22:59 30.63771 -99.20003 38209 ft 419 kts 281°
2026-04-20 23:00 30.65186 -99.26563 38209 ft 419 kts 281°
2026-04-20 23:00 30.66605 -99.33161 38207 ft 419 kts 281°
2026-04-20 23:01 30.68010 -99.39706 38209 ft 419 kts 281°
2026-04-20 23:01 30.69424 -99.46317 38206 ft 419 kts 281°
2026-04-20 23:02 30.70833 -99.52918 38206 ft 420 kts 281°
2026-04-20 23:02 30.72228 -99.59471 38208 ft 420 kts 281°
2026-04-20 23:03 30.73636 -99.66103 38207 ft 420 kts 281°
2026-04-20 23:03 30.75026 -99.72668 38206 ft 420 kts 280°
2026-04-20 23:04 30.76423 -99.79282 38205 ft 420 kts 281°
2026-04-20 23:04 30.77820 -99.85915 38203 ft 420 kts 281°
2026-04-20 23:05 30.79202 -99.92499 38204 ft 420 kts 280°
2026-04-20 23:05 30.80587 -99.99107 38203 ft 419 kts 280°
2026-04-20 23:06 30.81966 -100.05709 38211 ft 419 kts 280°
2026-04-20 23:06 30.83345 -100.12328 38219 ft 420 kts 281°
2026-04-20 23:07 30.84714 -100.18919 38214 ft 420 kts 281°
2026-04-20 23:07 30.86083 -100.25531 38216 ft 420 kts 281°
2026-04-20 23:08 30.87452 -100.32155 38208 ft 420 kts 281°
2026-04-20 23:08 30.88823 -100.38809 38207 ft 420 kts 281°
2026-04-20 23:09 30.90177 -100.45398 38212 ft 420 kts 281°
2026-04-20 23:09 30.91536 -100.52029 38199 ft 419 kts 281°
2026-04-20 23:10 30.92882 -100.58621 38203 ft 419 kts 281°
2026-04-20 23:10 30.94231 -100.65237 38198 ft 420 kts 280°
2026-04-20 23:11 30.95578 -100.71868 38193 ft 420 kts 281°
2026-04-20 23:11 30.96920 -100.78492 38189 ft 420 kts 281°
2026-04-20 23:12 30.98261 -100.85129 38192 ft 420 kts 281°
2026-04-20 23:12 30.99592 -100.91738 38188 ft 419 kts 280°
2026-04-20 23:13 31.00924 -100.98365 38187 ft 420 kts 280°
2026-04-20 23:13 31.02247 -101.04971 38183 ft 419 kts 281°
2026-04-20 23:14 31.03574 -101.11616 38181 ft 419 kts 280°
2026-04-20 23:14 31.04889 -101.18218 38181 ft 420 kts 280°
2026-04-20 23:15 31.06213 -101.24883 38183 ft 420 kts 280°
2026-04-20 23:15 31.07529 -101.31529 38187 ft 420 kts 280°
2026-04-20 23:16 31.08844 -101.38185 38179 ft 421 kts 281°
2026-04-20 23:16 31.10153 -101.44835 38180 ft 420 kts 281°
2026-04-20 23:17 31.11458 -101.51482 38177 ft 420 kts 281°
2026-04-20 23:17 31.12765 -101.58154 38177 ft 420 kts 281°
2026-04-20 23:18 31.14066 -101.64822 38175 ft 421 kts 281°
2026-04-20 23:18 31.15361 -101.71474 38175 ft 421 kts 280°
2026-04-20 23:19 31.16659 -101.78165 38175 ft 421 kts 280°
2026-04-20 23:19 31.17950 -101.84837 38175 ft 421 kts 280°
2026-04-20 23:20 31.19235 -101.91495 38172 ft 421 kts 280°
2026-04-20 23:20 31.20531 -101.98238 38173 ft 421 kts 280°
2026-04-20 23:21 31.21806 -102.04885 38168 ft 422 kts 280°
2026-04-20 23:21 31.23087 -102.11586 38168 ft 422 kts 280°
2026-04-20 23:22 31.24370 -102.18315 38168 ft 422 kts 280°
2026-04-20 23:22 31.25640 -102.24997 38165 ft 422 kts 280°
2026-04-20 23:23 31.26905 -102.31670 38158 ft 421 kts 280°
2026-04-20 23:23 31.28173 -102.38386 38158 ft 421 kts 280°
2026-04-20 23:24 31.29428 -102.45046 38159 ft 420 kts 280°
2026-04-20 23:24 31.30686 -102.51743 38151 ft 420 kts 280°
2026-04-20 23:25 31.31932 -102.58403 38147 ft 420 kts 280°
2026-04-20 23:25 31.33176 -102.65070 38152 ft 420 kts 279°
2026-04-20 23:26 31.34427 -102.71792 38152 ft 421 kts 279°
2026-04-20 23:26 31.35663 -102.78454 38147 ft 421 kts 279°
2026-04-20 23:27 31.36907 -102.85183 38142 ft 421 kts 280°
2026-04-20 23:27 31.38139 -102.91864 38146 ft 420 kts 280°
2026-04-20 23:28 31.39368 -102.98549 38136 ft 420 kts 280°
2026-04-20 23:28 31.40594 -103.05237 38134 ft 420 kts 279°
2026-04-20 23:29 31.41813 -103.11913 38148 ft 419 kts 280°
2026-04-20 23:29 31.43030 -103.18594 38151 ft 419 kts 279°
2026-04-20 23:30 31.44237 -103.25238 38140 ft 419 kts 279°
2026-04-20 23:30 31.45454 -103.31963 38140 ft 419 kts 280°
2026-04-20 23:31 31.46658 -103.38638 38143 ft 420 kts 280°
2026-04-20 23:31 31.47859 -103.45312 38137 ft 420 kts 279°
2026-04-20 23:32 31.49063 -103.52032 38142 ft 420 kts 280°
2026-04-20 23:32 31.50263 -103.58742 38145 ft 420 kts 280°
2026-04-20 23:33 31.51453 -103.65421 38144 ft 420 kts 279°
2026-04-20 23:33 31.52643 -103.72122 38137 ft 420 kts 279°
2026-04-20 23:34 31.53828 -103.78816 38144 ft 419 kts 279°
2026-04-20 23:34 31.55014 -103.85535 38144 ft 419 kts 279°
2026-04-20 23:35 31.56780 -103.95575 38144 ft 419 kts 279°
2026-04-20 23:36 31.57953 -104.02277 38142 ft 419 kts 279°
2026-04-20 23:36 31.59134 -104.09043 38145 ft 419 kts 279°
2026-04-20 23:37 31.60301 -104.15749 38151 ft 419 kts 279°
2026-04-20 23:37 31.61460 -104.22435 38150 ft 419 kts 279°
2026-04-20 23:38 31.62621 -104.29148 38154 ft 419 kts 279°
2026-04-20 23:38 31.63774 -104.35842 38152 ft 419 kts 279°
2026-04-20 23:39 31.64925 -104.42544 38168 ft 419 kts 279°
2026-04-20 23:39 31.66079 -104.49281 38170 ft 418 kts 279°
2026-04-20 23:40 31.67222 -104.55980 38175 ft 418 kts 279°
2026-04-20 23:40 31.68357 -104.62656 38178 ft 418 kts 279°
2026-04-20 23:41 31.69498 -104.69385 38182 ft 418 kts 279°
2026-04-20 23:41 31.70622 -104.76041 38191 ft 418 kts 279°
2026-04-20 23:42 31.71749 -104.82736 38186 ft 417 kts 279°
2026-04-20 23:42 31.72878 -104.89462 38179 ft 417 kts 279°
2026-04-20 23:43 31.73995 -104.96137 38166 ft 417 kts 279°
2026-04-20 23:43 31.75108 -105.02818 38152 ft 417 kts 279°
2026-04-20 23:44 31.76222 -105.09518 38161 ft 417 kts 279°
2026-04-20 23:44 31.77326 -105.16189 38168 ft 417 kts 279°
2026-04-20 23:45 31.78439 -105.22934 38172 ft 418 kts 279°
2026-04-20 23:45 31.79543 -105.29645 38175 ft 418 kts 279°
2026-04-20 23:46 31.80641 -105.36343 38177 ft 418 kts 279°
2026-04-20 23:46 31.81737 -105.43053 38185 ft 418 kts 279°
2026-04-20 23:47 31.82829 -105.49757 38197 ft 417 kts 279°
2026-04-20 23:47 31.83919 -105.56473 38211 ft 418 kts 279°
2026-04-20 23:48 31.85010 -105.63222 38210 ft 417 kts 279°
2026-04-20 23:48 31.86090 -105.69925 38209 ft 417 kts 279°
2026-04-20 23:49 31.87164 -105.76617 38220 ft 415 kts 278°
2026-04-20 23:49 31.88240 -105.83338 38224 ft 416 kts 278°
2026-04-20 23:50 31.89307 -105.90033 38218 ft 417 kts 279°
2026-04-20 23:50 31.90370 -105.96720 38204 ft 417 kts 279°
2026-04-20 23:51 31.91436 -106.03455 38183 ft 418 kts 279°
2026-04-20 23:51 31.92496 -106.10174 38183 ft 418 kts 279°
2026-04-20 23:52 31.93547 -106.16860 38160 ft 417 kts 279°
2026-04-20 23:52 31.94602 -106.23595 38147 ft 416 kts 279°
2026-04-20 23:53 31.95541 -106.30294 38150 ft 416 kts 277°
2026-04-20 23:53 31.96337 -106.37070 38144 ft 416 kts 277°
2026-04-20 23:54 31.97127 -106.43813 38156 ft 416 kts 277°
2026-04-20 23:54 31.97913 -106.50548 38171 ft 415 kts 277°
2026-04-20 23:55 31.98699 -106.57317 38169 ft 415 kts 277°
2026-04-20 23:55 31.99479 -106.64061 38161 ft 414 kts 277°
2026-04-20 23:56 32.00251 -106.70767 38154 ft 414 kts 277°
2026-04-20 23:56 32.01022 -106.77502 38156 ft 414 kts 277°
2026-04-20 23:57 32.01789 -106.84223 38159 ft 413 kts 277°
2026-04-20 23:57 32.02551 -106.90936 38165 ft 413 kts 277°
2026-04-20 23:58 32.03310 -106.97653 38172 ft 413 kts 277°
2026-04-20 23:58 32.04063 -107.04354 38173 ft 413 kts 277°
2026-04-20 23:59 32.04814 -107.11074 38174 ft 413 kts 277°
2026-04-20 23:59 32.05566 -107.17829 38177 ft 413 kts 277°
2026-04-21 00:00 32.06307 -107.24509 38176 ft 412 kts 278°
2026-04-21 00:00 32.07049 -107.31245 38154 ft 411 kts 277°
2026-04-21 00:01 32.07778 -107.37891 38170 ft 410 kts 277°
2026-04-21 00:01 32.08505 -107.44545 38163 ft 410 kts 278°
2026-04-21 00:02 32.09233 -107.51251 38159 ft 411 kts 278°
2026-04-21 00:02 32.09954 -107.57924 38157 ft 411 kts 277°
2026-04-21 00:03 32.10673 -107.64609 38170 ft 410 kts 277°
2026-04-21 00:03 32.11389 -107.71302 38169 ft 410 kts 277°
2026-04-21 00:04 32.12098 -107.77960 38168 ft 409 kts 277°
2026-04-21 00:04 32.12804 -107.84632 38176 ft 408 kts 277°
2026-04-21 00:05 32.13506 -107.91285 38191 ft 408 kts 277°
2026-04-21 00:05 32.14199 -107.97903 38186 ft 408 kts 278°
2026-04-21 00:06 32.14895 -108.04577 38206 ft 407 kts 277°
2026-04-21 00:06 32.15583 -108.11200 38221 ft 407 kts 277°
2026-04-21 00:07 32.16268 -108.17838 38196 ft 407 kts 277°
2026-04-21 00:07 32.16948 -108.24465 38211 ft 406 kts 278°
2026-04-21 00:08 32.17624 -108.31078 38211 ft 407 kts 277°
2026-04-21 00:08 32.18299 -108.37723 38191 ft 407 kts 278°
2026-04-21 00:09 32.18970 -108.44355 38191 ft 406 kts 278°
2026-04-21 00:09 32.19633 -108.50956 38205 ft 405 kts 278°
2026-04-21 00:10 32.20296 -108.57587 38174 ft 406 kts 277°
2026-04-21 00:10 32.20957 -108.64232 38172 ft 406 kts 278°
2026-04-21 00:11 32.21613 -108.70861 38177 ft 405 kts 277°
2026-04-21 00:11 32.22263 -108.77459 38163 ft 405 kts 277°
2026-04-21 00:12 32.22912 -108.84089 38162 ft 404 kts 277°
2026-04-21 00:12 32.23552 -108.90675 38123 ft 403 kts 277°
2026-04-21 00:13 32.24184 -108.97201 38197 ft 402 kts 277°
2026-04-21 00:13 32.24818 -109.03793 38161 ft 404 kts 277°
2026-04-21 00:14 32.25448 -109.10366 38152 ft 402 kts 277°
2026-04-21 00:14 32.26071 -109.16920 38143 ft 402 kts 277°
2026-04-21 00:15 32.26697 -109.23486 38127 ft 402 kts 278°
2026-04-21 00:15 32.28169 -109.29866 38133 ft 403 kts 291°
2026-04-21 00:16 32.30328 -109.35992 38137 ft 403 kts 291°
2026-04-21 00:16 32.32478 -109.42120 38140 ft 403 kts 291°
2026-04-21 00:17 32.34626 -109.48256 38135 ft 404 kts 291°
2026-04-21 00:17 32.36759 -109.54368 38141 ft 404 kts 291°
2026-04-21 00:18 32.38908 -109.60534 38155 ft 405 kts 291°
2026-04-21 00:18 32.41058 -109.66720 38173 ft 405 kts 290°
2026-04-21 00:19 32.43198 -109.72890 38182 ft 405 kts 291°
2026-04-21 00:19 32.45331 -109.79050 38190 ft 404 kts 290°
2026-04-21 00:20 32.47467 -109.85235 38166 ft 406 kts 290°
2026-04-21 00:20 32.49600 -109.91419 38166 ft 404 kts 290°
2026-04-21 00:21 32.51726 -109.97598 38167 ft 404 kts 290°
2026-04-21 00:21 32.53852 -110.03793 38147 ft 405 kts 290°
2026-04-21 00:22 32.55985 -110.10015 38151 ft 406 kts 290°
2026-04-21 00:22 32.58110 -110.16228 38155 ft 407 kts 290°
2026-04-21 00:23 32.60236 -110.22452 38146 ft 408 kts 291°
2026-04-21 00:23 32.62370 -110.28718 38140 ft 408 kts 290°
2026-04-21 00:24 32.64492 -110.34955 38105 ft 409 kts 290°
2026-04-21 00:24 32.66633 -110.41264 38095 ft 410 kts 291°
2026-04-21 00:25 32.68751 -110.47517 38094 ft 411 kts 290°
2026-04-21 00:25 32.70894 -110.53855 38081 ft 412 kts 290°
2026-04-21 00:26 32.73031 -110.60187 38105 ft 413 kts 290°
2026-04-21 00:26 32.75162 -110.66516 38090 ft 414 kts 290°
2026-04-21 00:27 32.77298 -110.72869 38096 ft 414 kts 290°
2026-04-21 00:27 32.79436 -110.79247 38071 ft 415 kts 290°
2026-04-21 00:28 32.81571 -110.85622 38076 ft 415 kts 290°
2026-04-21 00:28 32.83705 -110.92014 38069 ft 416 kts 290°
2026-04-21 00:29 32.85855 -110.98460 38069 ft 418 kts 290°
2026-04-21 00:29 32.87997 -111.04897 38060 ft 419 kts 290°
2026-04-21 00:30 32.90133 -111.11330 38031 ft 419 kts 290°
2026-04-21 00:30 32.92275 -111.17795 38013 ft 420 kts 290°
2026-04-21 00:31 32.94413 -111.24262 37989 ft 420 kts 290°
2026-04-21 00:31 32.96569 -111.30792 37975 ft 421 kts 290°
2026-04-21 00:32 32.98706 -111.37280 37967 ft 422 kts 290°
2026-04-21 00:32 33.00860 -111.43836 37952 ft 423 kts 289°
2026-04-21 00:33 33.02969 -111.50268 37937 ft 424 kts 289°
2026-04-21 00:33 33.05111 -111.56812 37938 ft 426 kts 289°
2026-04-21 00:34 33.07266 -111.63412 37936 ft 427 kts 290°
2026-04-21 00:34 33.09425 -111.70036 37938 ft 429 kts 289°
2026-04-21 00:35 33.11591 -111.76695 37936 ft 429 kts 289°
2026-04-21 00:35 33.13746 -111.83339 37931 ft 429 kts 289°
2026-04-21 00:36 33.15902 -111.89997 37935 ft 430 kts 289°
2026-04-21 00:36 33.18061 -111.96680 37920 ft 431 kts 289°
2026-04-21 00:37 33.20223 -112.03384 37936 ft 432 kts 289°
2026-04-21 00:37 33.22384 -112.10104 37962 ft 432 kts 289°
2026-04-21 00:38 33.24541 -112.16822 37987 ft 433 kts 289°
2026-04-21 00:38 33.26690 -112.23531 37997 ft 434 kts 289°
2026-04-21 00:39 33.28860 -112.30321 37988 ft 435 kts 289°
2026-04-21 00:39 33.31007 -112.37054 37961 ft 435 kts 289°
2026-04-21 00:40 33.33171 -112.43855 37940 ft 435 kts 289°
2026-04-21 00:40 33.35332 -112.50662 37922 ft 436 kts 289°
2026-04-21 00:41 33.37477 -112.57433 37929 ft 435 kts 289°
2026-04-21 00:41 33.39632 -112.64253 37928 ft 436 kts 289°
2026-04-21 00:42 33.41781 -112.71065 37929 ft 437 kts 288°
2026-04-21 00:42 33.43924 -112.77875 37929 ft 437 kts 288°
2026-04-21 00:43 33.46149 -112.84692 37938 ft 439 kts 291°
2026-04-21 00:43 33.48573 -112.91438 37932 ft 440 kts 291°
2026-04-21 00:44 33.50986 -112.98174 37942 ft 441 kts 291°
2026-04-21 00:44 33.53403 -113.04936 37939 ft 442 kts 291°
2026-04-21 00:45 33.57042 -113.15146 37946 ft 443 kts 290°
2026-04-21 00:45 33.59457 -113.21942 37946 ft 443 kts 290°
2026-04-21 00:46 33.61867 -113.28738 37950 ft 443 kts 291°
2026-04-21 00:46 33.64290 -113.35586 37960 ft 443 kts 290°
2026-04-21 00:47 33.66701 -113.42418 37959 ft 444 kts 290°
2026-04-21 00:47 33.69102 -113.49231 37967 ft 444 kts 290°
2026-04-21 00:48 33.71511 -113.56084 37961 ft 445 kts 290°
2026-04-21 00:48 33.73933 -113.62991 37954 ft 446 kts 290°
2026-04-21 00:49 33.76341 -113.69872 37947 ft 446 kts 289°
2026-04-21 00:49 33.78742 -113.76745 37936 ft 447 kts 290°
2026-04-21 00:50 33.81132 -113.83665 37933 ft 447 kts 289°
2026-04-21 00:50 33.82299 -113.87096 37653 ft 440 kts 289°
2026-04-21 00:50 33.83443 -113.90457 37275 ft 431 kts 289°
2026-04-21 00:51 33.84571 -113.93777 36909 ft 422 kts 289°
2026-04-21 00:51 33.85671 -113.97018 36548 ft 414 kts 289°
2026-04-21 00:51 33.86752 -114.00204 36172 ft 407 kts 289°
2026-04-21 00:51 33.87816 -114.03350 35917 ft 404 kts 289°
2026-04-21 00:52 33.89931 -114.09621 35907 ft 406 kts 289°
2026-04-21 00:52 33.91358 -114.16147 35891 ft 402 kts 278°
2026-04-21 00:53 33.92469 -114.22749 35881 ft 401 kts 278°
2026-04-21 00:53 33.93584 -114.29369 35873 ft 400 kts 278°
2026-04-21 00:54 33.94690 -114.35941 35873 ft 399 kts 279°
2026-04-21 00:54 33.95789 -114.42492 35867 ft 399 kts 278°
2026-04-21 00:55 33.96894 -114.49101 35865 ft 399 kts 278°
2026-04-21 00:55 33.97993 -114.55688 35856 ft 399 kts 278°
2026-04-21 00:56 33.99088 -114.62266 35856 ft 398 kts 279°
2026-04-21 00:56 34.00168 -114.68783 35858 ft 397 kts 278°
2026-04-21 00:57 34.01251 -114.75333 35863 ft 397 kts 278°
2026-04-21 00:57 34.02327 -114.81862 35882 ft 396 kts 278°
2026-04-21 00:58 34.03400 -114.88394 35895 ft 394 kts 278°
2026-04-21 00:58 34.04460 -114.94870 35899 ft 393 kts 278°
2026-04-21 00:59 34.05525 -115.01399 35906 ft 393 kts 278°
2026-04-21 00:59 34.06580 -115.07876 35887 ft 393 kts 278°
2026-04-21 01:00 34.07635 -115.14366 35901 ft 393 kts 278°
2026-04-21 01:00 34.08683 -115.20839 35898 ft 392 kts 278°
2026-04-21 01:01 34.09731 -115.27331 35901 ft 392 kts 278°
2026-04-21 01:01 34.10772 -115.33810 35905 ft 392 kts 278°
2026-04-21 01:02 34.11809 -115.40276 35912 ft 393 kts 277°
2026-04-21 01:02 34.12841 -115.46739 35931 ft 392 kts 277°
2026-04-21 01:03 34.13874 -115.53229 35936 ft 392 kts 277°
2026-04-21 01:03 34.14907 -115.59741 35953 ft 392 kts 278°
2026-04-21 01:04 34.15933 -115.66283 35961 ft 392 kts 275°
2026-04-21 01:04 34.16017 -115.72789 35967 ft 386 kts 261°
2026-04-21 01:05 34.15386 -115.79230 35971 ft 385 kts 261°
2026-04-21 01:05 34.14756 -115.85677 35983 ft 385 kts 261°
2026-04-21 01:06 34.14125 -115.92120 35985 ft 385 kts 261°
2026-04-21 01:06 34.13495 -115.98532 35991 ft 384 kts 260°
2026-04-21 01:07 34.12865 -116.04954 36003 ft 384 kts 260°
2026-04-21 01:07 34.12231 -116.11388 36021 ft 384 kts 260°
2026-04-21 01:08 34.11596 -116.17802 36001 ft 384 kts 260°
2026-04-21 01:08 34.10960 -116.24199 35979 ft 384 kts 260°
2026-04-21 01:09 34.10639 -116.27417 35760 ft 389 kts 260°
2026-04-21 01:09 34.10309 -116.30679 34842 ft 395 kts 260°
2026-04-21 01:09 34.09956 -116.34006 33926 ft 398 kts 260°
2026-04-21 01:09 34.09602 -116.37316 33086 ft 402 kts 260°
2026-04-21 01:10 34.09243 -116.40667 32178 ft 407 kts 260°
2026-04-21 01:10 34.08876 -116.44087 31291 ft 410 kts 260°
2026-04-21 01:10 34.08512 -116.47488 30818 ft 399 kts 260°
2026-04-21 01:10 34.08162 -116.50763 30478 ft 386 kts 260°
2026-04-21 01:11 34.07821 -116.53938 30165 ft 375 kts 259°
2026-04-21 01:11 34.07485 -116.57046 29849 ft 375 kts 259°
2026-04-21 01:11 34.07160 -116.60167 29510 ft 378 kts 261°
2026-04-21 01:11 34.06868 -116.63320 29081 ft 378 kts 261°
2026-04-21 01:12 34.06575 -116.66504 28636 ft 376 kts 260°
2026-04-21 01:12 34.06283 -116.69669 28192 ft 373 kts 260°
2026-04-21 01:12 34.05998 -116.72739 27760 ft 370 kts 260°
2026-04-21 01:12 34.05713 -116.75809 27323 ft 368 kts 260°
2026-04-21 01:13 34.05428 -116.78869 26867 ft 365 kts 260°
2026-04-21 01:13 34.05143 -116.81908 26428 ft 362 kts 260°
2026-04-21 01:13 34.04858 -116.84952 25990 ft 360 kts 260°
2026-04-21 01:13 34.04575 -116.87945 25367 ft 361 kts 259°
2026-04-21 01:14 34.04222 -116.90939 24521 ft 363 kts 257°
2026-04-21 01:14 34.03837 -116.93912 23661 ft 363 kts 257°
2026-04-21 01:14 34.03448 -116.96918 22782 ft 362 kts 258°
2026-04-21 01:14 34.03065 -116.99885 21907 ft 359 kts 258°
2026-04-21 01:15 34.02679 -117.02863 21082 ft 354 kts 258°
2026-04-21 01:15 34.02335 -117.05740 20575 ft 340 kts 258°
2026-04-21 01:15 34.02013 -117.08494 20116 ft 328 kts 258°
2026-04-21 01:15 34.01694 -117.11198 19700 ft 322 kts 258°
2026-04-21 01:16 34.01378 -117.13865 19281 ft 324 kts 258°
2026-04-21 01:16 34.01056 -117.16566 18865 ft 323 kts 258°
2026-04-21 01:16 34.00742 -117.19213 18457 ft 321 kts 258°
2026-04-21 01:16 34.00426 -117.21867 18048 ft 318 kts 258°
2026-04-21 01:17 34.00111 -117.24506 17711 ft 314 kts 258°
2026-04-21 01:17 33.99795 -117.27138 17263 ft 318 kts 258°
2026-04-21 01:17 33.99486 -117.29728 16827 ft 310 kts 258°
2026-04-21 01:17 33.99182 -117.32291 16432 ft 310 kts 258°
2026-04-21 01:18 33.98870 -117.34842 16012 ft 307 kts 255°
2026-04-21 01:18 33.98127 -117.37212 15575 ft 299 kts 241°
2026-04-21 01:18 33.97468 -117.39595 15137 ft 303 kts 262°
2026-04-21 01:18 33.97758 -117.42104 14764 ft 308 kts 289°
2026-04-21 01:19 33.98836 -117.44344 14470 ft 308 kts 292°
2026-04-21 01:19 33.99456 -117.46802 14243 ft 304 kts 276°
2026-04-21 01:19 33.99731 -117.49334 13918 ft 303 kts 272°
2026-04-21 01:19 33.99879 -117.51851 13590 ft 301 kts 270°
2026-04-21 01:20 34.00003 -117.54369 13263 ft 299 kts 270°
2026-04-21 01:20 34.00124 -117.56838 12942 ft 298 kts 270°
2026-04-21 01:20 34.00246 -117.59325 12614 ft 297 kts 270°
2026-04-21 01:20 34.00369 -117.61845 12240 ft 297 kts 270°
2026-04-21 01:21 34.00487 -117.64294 11855 ft 295 kts 270°
2026-04-21 01:21 34.00608 -117.66778 11463 ft 294 kts 270°
2026-04-21 01:21 34.00621 -117.69227 11078 ft 290 kts 261°
2026-04-21 01:21 34.00389 -117.71653 10690 ft 289 kts 260°
2026-04-21 01:22 34.00153 -117.74045 10306 ft 288 kts 260°
2026-04-21 01:22 33.99920 -117.76422 9933 ft 287 kts 259°
2026-04-21 01:22 33.99683 -117.78819 9545 ft 286 kts 260°
2026-04-21 01:22 33.99445 -117.81225 9165 ft 285 kts 260°
2026-04-21 01:23 33.99215 -117.83567 9001 ft 283 kts 260°
2026-04-21 01:23 33.98982 -117.85961 8979 ft 284 kts 260°
2026-04-21 01:23 33.98732 -117.88352 8284 ft 295 kts 260°
2026-04-21 01:23 33.98485 -117.90809 7626 ft 288 kts 261°
2026-04-21 01:24 33.98260 -117.93116 7271 ft 276 kts 261°
2026-04-21 01:24 33.98031 -117.95399 6808 ft 265 kts 262°
2026-04-21 01:24 33.97822 -117.97550 6529 ft 260 kts 261°
2026-04-21 01:24 33.97609 -117.99661 6198 ft 237 kts 261°
2026-04-21 01:25 33.97423 -118.01572 5784 ft 228 kts 261°
2026-04-21 01:25 33.97244 -118.03365 5699 ft 207 kts 261°
2026-04-21 01:25 33.97065 -118.05139 5229 ft 212 kts 261°
2026-04-21 01:25 33.96898 -118.06843 5144 ft 207 kts 261°
2026-04-21 01:26 33.96726 -118.08555 4770 ft 194 kts 262°
2026-04-21 01:26 33.96572 -118.10129 4581 ft 189 kts 262°
2026-04-21 01:26 33.96418 -118.11660 4328 ft 180 kts 262°
2026-04-21 01:26 33.96266 -118.13180 4071 ft 178 kts 262°
2026-04-21 01:27 33.96128 -118.14575 3886 ft 161 kts 262°
2026-04-21 01:27 33.95994 -118.15905 3646 ft 159 kts 262°
2026-04-21 01:27 33.95863 -118.17217 3460 ft 157 kts 263°
2026-04-21 01:27 33.95731 -118.18529 3246 ft 154 kts 262°
2026-04-21 01:28 33.95604 -118.19794 3053 ft 151 kts 263°
2026-04-21 01:28 33.95477 -118.21052 2853 ft 150 kts 262°
2026-04-21 01:28 33.95353 -118.22296 2659 ft 149 kts 262°
2026-04-21 01:28 33.95227 -118.23543 2477 ft 145 kts 263°
2026-04-21 01:29 33.95112 -118.24695 2300 ft 135 kts 262°
2026-04-21 01:29 33.95001 -118.25790 2112 ft 128 kts 262°
2026-04-21 01:29 33.94894 -118.26850 1945 ft 126 kts 262°
2026-04-21 01:29 33.94789 -118.27894 1783 ft 125 kts 262°
2026-04-21 01:30 33.94684 -118.28930 1620 ft 124 kts 261°
2026-04-21 01:30 33.94581 -118.29951 1466 ft 123 kts 261°
2026-04-21 01:30 33.94476 -118.30984 1290 ft 122 kts 262°
2026-04-21 01:30 33.94374 -118.31992 1146 ft 121 kts 262°
2026-04-21 01:31 33.94271 -118.32999 982 ft 120 kts 262°
2026-04-21 01:31 33.94177 -118.33994 863 ft 119 kts 263°
2026-04-21 01:31 33.94088 -118.34997 729 ft 121 kts 262°
2026-04-21 01:31 33.93980 -118.36007 549 ft 117 kts 262°
2026-04-21 01:32 33.93876 -118.36984 382 ft 127 kts 263°
2026-04-21 01:32 33.93766 -118.38005 207 ft 114 kts 261°
2026-04-21 01:32 33.93670 -118.38922 110 ft 102 kts 262°
2026-04-21 01:32 33.93600 -118.39619 113 ft 56 kts 265°
2026-04-21 01:33 33.93572 -118.39865 116 ft 8 kts 263°
2026-04-21 01:33 33.93568 -118.39900 116 ft 7 kts 265°
2026-04-21 01:33 33.93550 -118.40032 118 ft 21 kts 256°
2026-04-21 01:33 33.93482 -118.40223 121 ft 3 kts 232°
2026-04-21 01:34 33.93458 -118.40258 121 ft 7 kts 231°
2026-04-21 01:34 33.93418 -118.40224 121 ft 9 kts 93°
2026-04-21 01:34 33.93422 -118.40164 120 ft 10 kts 85°
2026-04-21 01:34 33.93438 -118.40009 118 ft 21 kts 84°
2026-04-21 01:35 33.93458 -118.39831 115 ft 20 kts 85°
2026-04-21 01:35 33.93473 -118.39648 113 ft 22 kts 84°
2026-04-21 01:35 33.93488 -118.39491 111 ft 19 kts 83°
2026-04-21 01:35 33.93458 -118.39391 110 ft 12 kts 171°
2026-04-21 01:36 33.93382 -118.39408 110 ft 13 kts 246°
2026-04-21 01:36 33.93387 -118.39430 110 ft 1 kts 90°
2026-04-21 01:36 33.93387 -118.39429 110 ft 0 kts 90°